sat.trackr.live / text

‹ back to catalog

FORMOSAT-7R (TRITON)

NORAD 58017 · 2023-155B

PAYLOAD ACTIVE UNKNOWN

§ Identity

Operator
Country
ROC
Launch date
2023-10-09
Launch site
FRGUI
Launch vehicle
Mass (kg)
RCS (m²)

External: N2YO · Heavens-Above · Gunter

§ Orbital elements

Epoch: 2026-09-21T19:05:45.626208Z

Period
96.56 min
Inclination
97.8299°
Eccentricity
0.0002508
Mean motion
14.91347823 rev/d
Perigee alt
592.0 km
Apogee alt
595.5 km
Semi-major
6,971.9 km
B*
8.4543e-5
RAAN
345.4970°
Arg perigee
106.0225°
Mean anomaly
254.1270°
Rev number
16,062

§ Raw data

FORMOSAT-7R (TRITON)1 58017U 23155B   26264.79566697  .00000787  00000+0  84543-4 0  99912 58017  97.8299 345.4970 0002508 106.0225 254.1270 14.91347823160628

JSON: /api/v1/satellites/58017 · /tle

For live sub-satellite position, see the globe view (requires WebGL).

§ Visibility from observer

Set your observer location to see the next 7 days of passes ≥ 10°. The values pass through the URL so the page stays shareable.

No JS? Fill the form by hand. The geolocation button needs JavaScript.

§ Radio — SatNOGS DB

ModeDescriptionDownlinkUplink
CW Mode U 400.900 MHz

1 transmitter · refreshed weekly from db.satnogs.org